This demonstration page uses our WeatherBlox Daily Observations layout. Learn more.

Left ArrowRight Arrow

34.74481, -87.66753

Hourly Observations for August 29, 2015

Temp ( °F °C ) Dew Point ( °F °C ) Humidity (%) Winds ( mph kmh ) Pressure ( in mb ) Visibility ( mi km ) Precip ( " mm )
12:53 am 00:53 Clear 74 23.3 68 20 82 82 SE 6 9 30.08 1019 10 16 0.00 0.00
1:53 am 01:53 Mostly Clear 73 22.8 68 20 84 84 SE 6 9 30.07 1018 9 14 0.00 0.00
2:53 am 02:53 Mostly Clear 72 22.2 67 19.4 84 84 Calm 30.07 1018 9 14 0.00 0.00
3:53 am 03:53 Partly Cloudy 71 21.7 67 19.4 87 87 E 3 6 30.07 1018 8 13 0.00 0.00
4:53 am 04:53 Clear 70 21.1 66 18.9 87 87 E 5 7 30.08 1019 8 13 0.00 0.00
5:53 am 05:53 Clear 69 20.6 66 18.9 90 90 Calm 30.09 1019 7 11 0.00 0.00
6:53 am 06:53 Sunny with Mist and Fog 69 20.6 66 18.9 90 90 Calm 30.11 1020 5 8 0.00 0.00
7:53 am 07:53 Sunny 73 22.8 68 20 84 84 ESE 3 6 30.11 1020 8 13 0.00 0.00
8:53 am 08:53 Partly Cloudy 77 25 69 20.6 77 77 SE 9 15 30.11 1020 10 16 0.00 0.00
9:53 am 09:53 Partly Cloudy 79 26.1 69 20.6 72 72 SSE 10 17 30.13 1020 10 16 0.00 0.00
10:45 am 10:45 Mostly Cloudy 81 27.2 69 20.6 67 67 SSE 5 7 30.12 1020 10 16 0.00 0.00
10:53 am 10:53 Mostly Cloudy 81 27.2 69 20.6 67 67 SSW 7 11 30.14 1021 10 16 0.00 0.00
11:36 am 11:36 Cloudy 82 27.8 69 20.6 65 65 SSW 9 15 30.12 1020 10 16 0.00 0.00
11:53 am 11:53 Cloudy 83 28.3 70 21.1 65 65 SSW 7 11 30.11 1020 10 16 0.00 0.00
12:53 pm 12:53 Mostly Cloudy 83 28.3 71 21.7 67 67 WSW 6 9 30.10 1019 10 16 0.00 0.00
1:05 pm 13:05 Mostly Cloudy with Nearby Thunderstorms 82 27.8 70 21.1 67 67 WSW 5 7 30.09 1019 10 16 0.00 0.00
1:36 pm 13:36 Cloudy with Nearby Thunderstorms 76 24.4 70 21.1 82 82 S 9 15 30.09 1019 7 11 0.00 0.03
1:49 pm 13:49 Cloudy with Thunderstorms 75 24 70 21 83 83 S 10 17 30.09 1019 7 11 0.00 0.03
1:53 pm 13:53 Cloudy with Thunderstorms 74 23.3 70 21.1 88 88 S 8 13 30.11 1020 5 8 0.00 0.03
2:11 pm 14:11 Cloudy with Thunderstorms 74 23.3 70 21.1 88 88 ESE 8 13 30.09 1019 5 8 0.00 0.03
2:26 pm 14:26 Cloudy with Nearby Thunderstorms 74 23.3 70 21.1 88 88 ENE 3 6 30.09 1019 7 11 0.00 0.03
2:34 pm 14:34 Cloudy with Light Rain 74 23.3 70 21.1 88 88 E 6 9 30.09 1019 7 11 0.00 0.03
2:53 pm 14:53 Cloudy with Light Rain 74 23.3 70 21.1 88 88 ENE 5 7 30.09 1019 6 10 0.00 0.03
3:53 pm 15:53 Mostly Sunny 77 25 72 22.2 85 85 SE 7 11 30.06 1018 10 16 0.00 0.03
4:53 pm 16:53 Sunny 79 26.1 72 22.2 79 79 SSE 12 19 30.06 1018 10 16 0.00 0.00
5:53 pm 17:53 Sunny 77 25 68 20 74 74 SE 10 17 30.06 1018 10 16 0.00 0.00
6:53 pm 18:53 Sunny 74 23.3 67 19.4 79 79 SE 8 13 30.06 1018 10 16 0.00 0.00
7:53 pm 19:53 Clear 72 22.2 68 20 87 87 E 5 7 30.07 1018 10 16 0.00 0.00
8:53 pm 20:53 Clear 71 21.7 67 19.4 87 87 ESE 7 11 30.08 1019 10 16 0.00 0.00
9:53 pm 21:53 Clear 69 20.6 66 18.9 90 90 Calm 30.09 1019 10 16 0.00 0.00
10:53 pm 22:53 Clear 68 20 65 18.3 90 90 Calm 30.09 1019 7 11 0.00 0.00
11:53 pm 23:53 Clear 69 20.6 67 19.4 93 93 E 5 7 30.09 1019 8 13 0.00 0.00

Powered by AerisWeather